Overview Statistics Trail Chart Weather Telemetry Raw packets
 

This is the latest recevied weather packets stored in our database for station/object W8RSN-13. If no packets are shown the sender has not sent any weather packets the latest 10 day(s).

<< 49 50 51 52 53 54 55 >>
Time Temp. Humidity Pressure Rain* Wind** Luminosity Snow
1788346765 15.56° C 63% 1018.3 hPa - - - -
1788346465 15.56° C 62% 1018.2 hPa - - - -
1788346164 15.56° C 64% 1018.2 hPa - - - -
1788345863 15.56° C 67% 1018.1 hPa - - - -
1788345562 15.56° C 67% 1018.1 hPa - - - -
1788345261 16.11° C 67% 1018 hPa - - - -
1788344960 16.11° C 66% 1018.2 hPa - - - -
1788344659 16.11° C 67% 1018.2 hPa - - - -
1788344358 16.11° C 66% 1018.1 hPa - - - -
1788344057 16.11° C 66% 1018.4 hPa - - - -
1788343756 16.11° C 65% 1018.4 hPa - - - -
1788343456 16.11° C 65% 1018.3 hPa - - - -
1788343175 16.11° C 64% 1018.3 hPa - - - -
1788342874 16.11° C 65% 1018.1 hPa - - - -
1788342573 16.11° C 64% 1018 hPa - - - -
1788342272 16.11° C 64% 1018.1 hPa - - - -
1788341971 16.11° C 65% 1018 hPa - - - -
1788341670 16.11° C 64% 1018.2 hPa - - - -
1788341068 16.67° C 60% 1018.3 hPa - - - -
1788340768 16.67° C 63% 1018.1 hPa - - - -
1788340467 16.67° C 65% 1018.3 hPa - - - -
1788340166 16.67° C 64% 1018.2 hPa - - - -
1788339865 16.67° C 65% 1018.2 hPa - - - -
1788339564 16.67° C 67% 1018.2 hPa - - - -
1788339263 16.67° C 68% 1018.3 hPa - - - -

* Rain since midnight (hover to see other rain measurements)
** Current wind speed in m/s (hover to see current wind gust speed)